StationID,Date,MaxTemp,MinTemp,Precipitation,Snowfall,SnowDepth
"CA001091235","1980-09-01",,,,0.00,0.00
"CA001091235","1980-09-02",,,,0.00,0.00
"CA001091235","1980-09-03",,,,0.00,0.00
"CA001091235","1980-09-04",,,,0.00,0.00
"CA001091235","1980-09-05",,,,0.00,0.00
"CA001091235","1980-09-06",,,,0.00,0.00
"CA001091235","1980-09-07",,,,0.00,0.00
"CA001091235","1980-09-08",,,,0.00,0.00
"CA001091235","1980-09-09",,,,0.00,0.00
"CA001091235","1980-09-10",74.30,32.00,10.00,0.00,0.00
"CA001091235","1980-09-11",61.70,48.20,0.00,0.00,0.00
"CA001091235","1980-09-12",61.70,37.40,0.00,0.00,0.00
"CA001091235","1980-09-13",62.60,40.10,0.00,0.00,0.00
"CA001091235","1980-09-14",59.90,30.20,0.00,0.00,0.00
"CA001091235","1980-09-15",65.30,32.00,0.00,0.00,0.00
"CA001091235","1980-09-16",76.10,33.80,0.00,0.00,0.00
"CA001091235","1980-09-17",60.80,53.60,0.00,0.00,0.00
"CA001091235","1980-09-18",61.70,36.50,40.00,0.00,0.00
"CA001091235","1980-09-19",59.00,45.50,84.00,0.00,0.00
"CA001091235","1980-09-20",53.60,38.30,4.00,0.00,0.00
"CA001091235","1980-09-21",54.50,37.40,60.00,0.00,0.00
"CA001091235","1980-09-22",54.50,42.80,30.00,0.00,0.00
"CA001091235","1980-09-23",59.90,32.00,12.00,0.00,0.00
"CA001091235","1980-09-24",57.20,35.60,0.00,0.00,0.00
"CA001091235","1980-09-25",64.40,30.20,0.00,0.00,0.00
"CA001091235","1980-09-26",66.20,30.20,0.00,0.00,0.00
"CA001091235","1980-09-27",62.60,32.00,16.00,0.00,0.00
"CA001091235","1980-09-28",59.00,40.10,30.00,0.00,0.00
"CA001091235","1980-09-29",59.00,48.20,0.00,0.00,0.00
"CA001091235","1980-09-30",58.10,33.80,10.00,0.00,0.00
"CA001091235","1980-10-01",56.30,30.20,0.00,0.00,0.00
"CA001091235","1980-10-02",68.90,29.30,0.00,0.00,0.00
"CA001091235","1980-10-03",76.10,29.30,0.00,0.00,0.00
"CA001091235","1980-10-04",71.60,33.80,0.00,0.00,0.00
"CA001091235","1980-10-05",72.50,51.80,0.00,0.00,0.00
"CA001091235","1980-10-06",74.30,41.00,0.00,0.00,0.00
"CA001091235","1980-10-07",70.70,29.30,0.00,0.00,0.00
"CA001091235","1980-10-08",50.90,39.20,0.00,0.00,0.00
"CA001091235","1980-10-09",52.70,22.10,0.00,0.00,0.00
"CA001091235","1980-10-10",59.00,23.90,0.00,0.00,0.00
"CA001091235","1980-10-11",61.70,30.20,14.00,0.00,0.00
"CA001091235","1980-10-12",49.10,35.60,20.00,0.00,0.00
"CA001091235","1980-10-13",53.60,32.90,0.00,0.00,0.00
"CA001091235","1980-10-14",49.10,24.80,0.00,0.00,0.00
"CA001091235","1980-10-15",40.10,28.40,0.00,0.00,0.00
"CA001091235","1980-10-16",46.40,29.30,0.00,0.00,0.00
"CA001091235","1980-10-17",49.10,30.20,0.00,0.00,0.00
"CA001091235","1980-10-18",56.30,33.80,0.00,0.00,0.00
"CA001091235","1980-10-19",50.90,30.20,10.00,0.00,0.00
"CA001091235","1980-10-20",53.60,35.60,0.00,0.00,0.00
"CA001091235","1980-10-21",41.90,31.10,0.00,0.00,0.00
"CA001091235","1980-10-22",46.40,22.10,0.00,0.00,0.00
"CA001091235","1980-10-23",48.20,17.60,0.00,0.00,0.00
"CA001091235","1980-10-24",55.40,41.00,0.00,0.00,0.00
"CA001091235","1980-10-25",51.80,30.20,0.00,0.00,0.00
"CA001091235","1980-10-26",41.90,21.20,0.00,0.00,0.00
"CA001091235","1980-10-27",42.80,18.50,0.00,0.00,0.00
"CA001091235","1980-10-28",51.80,28.40,0.00,0.00,0.00
"CA001091235","1980-10-29",51.80,28.40,0.00,0.00,0.00
"CA001091235","1980-10-30",49.10,23.00,0.00,0.00,0.00
"CA001091235","1980-10-31",55.40,39.20,0.00,0.00,0.00
"CA001091235","1980-11-01",59.00,46.40,40.00,0.00,
"CA001091235","1980-11-02",53.60,30.20,0.00,0.00,
"CA001091235","1980-11-03",44.60,26.60,48.00,0.00,
"CA001091235","1980-11-04",51.80,41.00,0.00,0.00,
"CA001091235","1980-11-05",59.00,37.40,0.00,0.00,
"CA001091235","1980-11-06",53.60,43.70,0.00,0.00,
"CA001091235","1980-11-07",48.20,37.40,0.00,0.00,
"CA001091235","1980-11-08",46.40,34.70,12.00,0.00,
"CA001091235","1980-11-09",42.80,30.20,0.00,0.00,
"CA001091235","1980-11-10",40.10,24.80,0.00,0.00,
"CA001091235","1980-11-11",34.70,15.80,0.00,0.00,
"CA001091235","1980-11-12",30.20,12.20,0.00,0.00,
"CA001091235","1980-11-13",41.00,13.10,0.00,0.00,
"CA001091235","1980-11-14",33.80,28.40,20.00,20.00,20.00
"CA001091235","1980-11-15",34.70,16.70,0.00,0.00,20.00
"CA001091235","1980-11-16",39.20,14.00,0.00,0.00,20.00
"CA001091235","1980-11-17",41.90,15.80,0.00,0.00,10.00
"CA001091235","1980-11-18",43.70,26.60,6.00,6.00,10.00
"CA001091235","1980-11-19",36.50,19.40,0.00,0.00,10.00
"CA001091235","1980-11-20",44.60,32.00,46.00,26.00,10.00
"CA001091235","1980-11-21",32.00,26.60,0.00,0.00,30.00
"CA001091235","1980-11-22",31.10,7.70,0.00,0.00,30.00
"CA001091235","1980-11-23",28.40,17.60,0.00,0.00,30.00
"CA001091235","1980-11-24",31.10,6.80,0.00,0.00,30.00
"CA001091235","1980-11-25",39.20,20.30,0.00,0.00,30.00
"CA001091235","1980-11-26",41.00,24.80,0.00,0.00,20.00
"CA001091235","1980-11-27",44.60,32.00,0.00,0.00,10.00
"CA001091235","1980-11-28",30.20,13.10,50.00,50.00,60.00
"CA001091235","1980-11-29",27.50,24.80,90.00,90.00,130.00
"CA001091235","1980-11-30",12.20,10.40,66.00,66.00,150.00
"CA001091235","1980-12-01",2.30,-0.40,16.00,16.00,210.00
"CA001091235","1980-12-02",-2.20,-7.60,126.00,126.00,220.00
"CA001091235","1980-12-03",-2.20,-19.30,40.00,40.00,300.00
"CA001091235","1980-12-04",-1.30,-8.50,10.00,10.00,320.00
"CA001091235","1980-12-05",-4.00,-18.40,0.00,0.00,310.00
"CA001091235","1980-12-06",-5.80,-34.60,0.00,0.00,300.00
"CA001091235","1980-12-07",19.40,-29.20,152.00,152.00,280.00
"CA001091235","1980-12-08",28.40,4.10,0.00,0.00,400.00
"CA001091235","1980-12-09",32.00,16.70,150.00,120.00,390.00
"CA001091235","1980-12-10",41.90,28.40,68.00,0.00,450.00
"CA001091235","1980-12-11",48.20,32.00,0.00,0.00,390.00
"CA001091235","1980-12-12",35.60,10.40,0.00,0.00,370.00
"CA001091235","1980-12-13",41.90,14.90,8.00,0.00,370.00
"CA001091235","1980-12-14",41.00,34.70,10.00,0.00,330.00
"CA001091235","1980-12-15",48.20,30.20,0.00,0.00,280.00
"CA001091235","1980-12-16",41.90,27.50,20.00,0.00,270.00
"CA001091235","1980-12-17",22.10,10.40,0.00,0.00,260.00
"CA001091235","1980-12-18",5.90,-8.50,0.00,0.00,260.00
"CA001091235","1980-12-19",9.50,3.20,106.00,106.00,300.00
"CA001091235","1980-12-20",0.50,-0.40,96.00,96.00,390.00
"CA001091235","1980-12-21",2.30,-1.30,10.00,10.00,440.00
"CA001091235","1980-12-22",3.20,-2.20,60.00,60.00,440.00
"CA001091235","1980-12-23",14.90,0.50,20.00,20.00,480.00
"CA001091235","1980-12-24",32.00,-4.90,0.00,0.00,480.00
"CA001091235","1980-12-25",41.00,20.30,0.00,0.00,450.00
"CA001091235","1980-12-26",48.20,31.10,16.00,0.00,430.00
"CA001091235","1980-12-27",49.10,30.20,0.00,0.00,360.00
"CA001091235","1980-12-28",41.00,21.20,0.00,0.00,350.00
"CA001091235","1980-12-29",44.60,36.50,0.00,0.00,330.00
"CA001091235","1980-12-30",30.20,16.70,0.00,0.00,320.00
"CA001091235","1980-12-31",30.20,20.30,0.00,0.00,320.00
"CA001091235","1981-01-01",28.40,26.60,0.00,0.00,320.00
"CA001091235","1981-01-02",26.60,17.60,0.00,0.00,320.00
"CA001091235","1981-01-03",23.00,5.00,0.00,0.00,320.00
"CA001091235","1981-01-04",25.70,7.70,24.00,24.00,320.00
"CA001091235","1981-01-05",31.10,17.60,10.00,10.00,330.00
"CA001091235","1981-01-06",39.20,18.50,0.00,0.00,340.00
"CA001091235","1981-01-07",27.50,11.30,0.00,0.00,340.00
"CA001091235","1981-01-08",35.60,11.30,0.00,0.00,340.00
"CA001091235","1981-01-09",41.00,23.90,0.00,0.00,340.00
"CA001091235","1981-01-10",41.00,14.00,0.00,0.00,340.00
"CA001091235","1981-01-11",37.40,7.70,0.00,0.00,340.00
"CA001091235","1981-01-12",39.20,20.30,0.00,0.00,340.00
"CA001091235","1981-01-13",34.70,17.60,0.00,0.00,340.00
"CA001091235","1981-01-14",32.00,3.20,0.00,0.00,340.00
"CA001091235","1981-01-15",34.70,4.10,0.00,0.00,340.00
"CA001091235","1981-01-16",48.20,0.50,0.00,0.00,340.00
"CA001091235","1981-01-17",43.70,9.50,0.00,0.00,340.00
"CA001091235","1981-01-18",44.60,16.70,0.00,0.00,340.00
"CA001091235","1981-01-19",50.00,41.90,0.00,0.00,310.00
"CA001091235","1981-01-20",50.90,39.20,0.00,0.00,280.00
"CA001091235","1981-01-21",51.80,42.80,0.00,0.00,210.00
"CA001091235","1981-01-22",54.50,42.80,20.00,0.00,150.00
"CA001091235","1981-01-23",38.30,32.90,0.00,0.00,110.00
"CA001091235","1981-01-24",34.70,19.40,0.00,0.00,110.00
"CA001091235","1981-01-25",37.40,20.30,0.00,0.00,110.00
"CA001091235","1981-01-26",33.80,23.00,130.00,130.00,110.00
"CA001091235","1981-01-27",33.80,27.50,0.00,0.00,240.00
"CA001091235","1981-01-28",38.30,27.50,0.00,0.00,230.00
"CA001091235","1981-01-29",30.20,27.50,0.00,0.00,230.00
"CA001091235","1981-01-30",32.00,15.80,0.00,0.00,230.00
"CA001091235","1981-01-31",32.90,-0.40,0.00,0.00,230.00
"CA001091235","1981-02-01",23.00,-1.30,0.00,0.00,220.00
"CA001091235","1981-02-02",28.40,6.80,0.00,0.00,220.00
"CA001091235","1981-02-03",31.10,4.10,0.00,0.00,220.00
"CA001091235","1981-02-04",20.30,18.50,0.00,0.00,210.00
"CA001091235","1981-02-05",19.40,16.70,0.00,0.00,210.00
"CA001091235","1981-02-06",22.10,17.60,0.00,0.00,200.00
"CA001091235","1981-02-07",29.30,14.90,0.00,0.00,190.00
"CA001091235","1981-02-08",23.00,6.80,0.00,0.00,190.00
"CA001091235","1981-02-09",7.70,-2.20,0.00,0.00,190.00
"CA001091235","1981-02-10",14.00,-22.90,0.00,0.00,190.00
"CA001091235","1981-02-11",21.20,5.00,62.00,62.00,190.00
"CA001091235","1981-02-12",34.70,3.20,14.00,14.00,230.00
"CA001091235","1981-02-13",42.80,14.90,0.00,0.00,230.00
"CA001091235","1981-02-14",50.90,37.40,0.00,0.00,190.00
"CA001091235","1981-02-15",43.70,32.00,24.00,0.00,180.00
"CA001091235","1981-02-16",46.40,28.40,2.00,0.00,150.00
"CA001091235","1981-02-17",46.40,32.90,0.00,0.00,140.00
"CA001091235","1981-02-18",48.20,28.40,30.00,0.00,100.00
"CA001091235","1981-02-19",48.20,32.00,0.00,0.00,100.00
"CA001091235","1981-02-20",35.60,24.80,0.00,0.00,80.00
"CA001091235","1981-02-21",40.10,31.10,0.00,0.00,80.00
"CA001091235","1981-02-22",50.00,28.40,0.00,0.00,70.00
"CA001091235","1981-02-23",45.50,23.00,0.00,0.00,70.00
"CA001091235","1981-02-24",41.90,19.40,0.00,0.00,70.00
"CA001091235","1981-02-25",31.10,23.90,0.00,0.00,70.00
"CA001091235","1981-02-26",39.20,27.50,0.00,0.00,70.00
"CA001091235","1981-02-27",43.70,15.80,0.00,0.00,70.00
"CA001091235","1981-02-28",46.40,13.10,0.00,0.00,60.00
"CA001091235","1981-03-01",47.30,14.90,0.00,0.00,60.00
"CA001091235","1981-03-02",46.40,21.20,10.00,10.00,60.00
"CA001091235","1981-03-03",40.10,32.00,0.00,0.00,70.00
"CA001091235","1981-03-04",35.60,25.70,0.00,0.00,70.00
"CA001091235","1981-03-05",37.40,6.80,0.00,0.00,60.00
"CA001091235","1981-03-06",41.90,19.40,0.00,0.00,60.00
"CA001091235","1981-03-07",49.10,30.20,0.00,0.00,50.00
"CA001091235","1981-03-08",49.10,18.50,0.00,0.00,50.00
"CA001091235","1981-03-09",55.40,26.60,0.00,0.00,40.00
"CA001091235","1981-03-10",54.50,23.00,0.00,0.00,40.00
"CA001091235","1981-03-11",51.80,24.80,0.00,0.00,40.00
"CA001091235","1981-03-12",56.30,16.70,0.00,0.00,40.00
"CA001091235","1981-03-13",57.20,16.70,0.00,0.00,20.00
"CA001091235","1981-03-14",50.90,20.30,0.00,0.00,10.00
"CA001091235","1981-03-15",51.80,23.90,24.00,10.00,0.00
"CA001091235","1981-03-16",42.80,33.80,6.00,6.00,10.00
"CA001091235","1981-03-17",46.40,15.80,0.00,0.00,0.00
"CA001091235","1981-03-18",48.20,13.10,0.00,0.00,0.00
"CA001091235","1981-03-19",49.10,12.20,0.00,0.00,0.00
"CA001091235","1981-03-20",50.90,13.10,0.00,0.00,0.00
"CA001091235","1981-03-21",51.80,14.00,0.00,0.00,0.00
"CA001091235","1981-03-22",52.70,19.40,0.00,0.00,0.00
"CA001091235","1981-03-23",50.00,19.40,0.00,0.00,0.00
"CA001091235","1981-03-24",51.80,19.40,0.00,0.00,0.00
"CA001091235","1981-03-25",50.00,36.50,0.00,0.00,0.00
"CA001091235","1981-03-26",53.60,25.70,0.00,0.00,0.00
"CA001091235","1981-03-27",50.90,21.20,12.00,0.00,0.00
"CA001091235","1981-03-28",51.80,35.60,0.00,0.00,0.00
"CA001091235","1981-03-29",47.30,27.50,0.00,0.00,0.00
"CA001091235","1981-03-30",45.50,22.10,0.00,0.00,0.00
"CA001091235","1981-03-31",50.90,37.40,0.00,0.00,0.00
"CA001091235","1981-04-01",42.80,19.40,0.00,0.00,0.00
"CA001091235","1981-04-02",40.10,23.00,20.00,20.00,0.00
"CA001091235","1981-04-03",42.80,20.30,10.00,10.00,0.00
"CA001091235","1981-04-04",39.20,17.60,10.00,10.00,0.00
"CA001091235","1981-04-05",42.80,32.00,16.00,16.00,10.00
"CA001091235","1981-04-06",41.90,28.40,0.00,0.00,0.00
"CA001091235","1981-04-07",42.80,21.20,10.00,10.00,0.00
"CA001091235","1981-04-08",39.20,23.00,20.00,0.00,0.00
"CA001091235","1981-04-09",43.70,24.80,10.00,10.00,0.00
"CA001091235","1981-04-10",40.10,23.90,0.00,0.00,0.00
"CA001091235","1981-04-11",37.40,33.80,46.00,46.00,0.00
"CA001091235","1981-04-12",31.10,18.50,30.00,30.00,30.00
"CA001091235","1981-04-13",44.60,14.00,0.00,0.00,20.00
"CA001091235","1981-04-14",52.70,30.20,0.00,0.00,0.00
"CA001091235","1981-04-15",60.80,39.20,0.00,0.00,0.00
"CA001091235","1981-04-16",57.20,37.40,0.00,0.00,0.00
"CA001091235","1981-04-17",50.00,19.40,0.00,0.00,0.00
"CA001091235","1981-04-18",62.60,18.50,0.00,0.00,0.00
"CA001091235","1981-04-19",69.80,22.10,0.00,0.00,0.00
"CA001091235","1981-04-20",50.00,32.00,0.00,0.00,0.00
"CA001091235","1981-04-21",56.30,32.00,10.00,0.00,0.00
"CA001091235","1981-04-22",56.30,33.80,0.00,0.00,0.00
"CA001091235","1981-04-23",65.30,42.80,10.00,0.00,0.00
"CA001091235","1981-04-24",50.00,39.20,0.00,0.00,0.00
"CA001091235","1981-04-25",49.10,23.00,0.00,0.00,0.00
"CA001091235","1981-04-26",53.60,16.70,0.00,0.00,0.00
"CA001091235","1981-04-27",50.00,25.70,30.00,0.00,0.00
"CA001091235","1981-04-28",50.90,29.30,20.00,0.00,0.00
"CA001091235","1981-04-29",54.50,31.10,0.00,0.00,0.00
"CA001091235","1981-04-30",70.70,40.10,0.00,0.00,0.00
"CA001091235","1981-05-01",56.30,25.70,0.00,0.00,0.00
"CA001091235","1981-05-02",51.80,34.70,0.00,0.00,0.00
"CA001091235","1981-05-03",52.70,34.70,0.00,0.00,0.00
"CA001091235","1981-05-04",58.10,33.80,0.00,0.00,0.00
"CA001091235","1981-05-05",59.90,27.50,10.00,0.00,0.00
"CA001091235","1981-05-06",53.60,28.40,10.00,0.00,0.00
"CA001091235","1981-05-07",54.50,35.60,0.00,0.00,0.00
"CA001091235","1981-05-08",59.90,30.20,0.00,0.00,0.00
"CA001091235","1981-05-09",54.50,37.40,10.00,0.00,0.00
"CA001091235","1981-05-10",57.20,30.20,0.00,0.00,0.00
"CA001091235","1981-05-11",59.90,25.70,0.00,0.00,0.00
"CA001091235","1981-05-12",66.20,27.50,0.00,0.00,0.00
"CA001091235","1981-05-13",63.50,32.00,10.00,0.00,0.00
"CA001091235","1981-05-14",59.90,42.80,10.00,0.00,0.00
"CA001091235","1981-05-15",60.80,33.80,0.00,0.00,0.00
"CA001091235","1981-05-16",66.20,40.10,0.00,0.00,0.00
"CA001091235","1981-05-17",65.30,33.80,0.00,0.00,0.00
"CA001091235","1981-05-18",66.20,42.80,10.00,0.00,0.00
"CA001091235","1981-05-19",66.20,45.50,10.00,0.00,0.00
"CA001091235","1981-05-20",69.80,42.80,20.00,0.00,0.00
"CA001091235","1981-05-21",59.90,40.10,70.00,0.00,0.00
"CA001091235","1981-05-22",64.40,44.60,0.00,0.00,0.00
"CA001091235","1981-05-23",69.80,40.10,0.00,0.00,0.00
"CA001091235","1981-05-24",70.70,48.20,30.00,0.00,0.00
"CA001091235","1981-05-25",63.50,43.70,202.00,0.00,0.00
"CA001091235","1981-05-26",62.60,39.20,10.00,0.00,0.00
"CA001091235","1981-05-27",58.10,37.40,0.00,0.00,0.00
"CA001091235","1981-05-28",66.20,30.20,0.00,0.00,0.00
"CA001091235","1981-05-29",74.30,33.80,0.00,0.00,0.00
"CA001091235","1981-05-30",64.40,48.20,274.00,0.00,0.00
"CA001091235","1981-05-31",64.40,41.00,0.00,0.00,0.00
"CA001091235","1981-06-01",71.60,33.80,0.00,0.00,0.00
"CA001091235","1981-06-02",59.00,41.90,0.00,0.00,0.00
"CA001091235","1981-06-03",65.30,41.00,34.00,0.00,0.00
"CA001091235","1981-06-04",63.50,36.50,0.00,0.00,0.00
"CA001091235","1981-06-05",58.10,36.50,20.00,0.00,0.00
"CA001091235","1981-06-06",59.00,36.50,0.00,0.00,0.00
"CA001091235","1981-06-07",58.10,28.40,0.00,0.00,0.00
"CA001091235","1981-06-08",56.30,35.60,28.00,0.00,0.00
"CA001091235","1981-06-09",60.80,36.50,10.00,0.00,0.00
"CA001091235","1981-06-10",55.40,41.00,208.00,0.00,0.00
"CA001091235","1981-06-11",55.40,39.20,10.00,0.00,0.00
"CA001091235","1981-06-12",59.00,31.10,0.00,0.00,0.00
"CA001091235","1981-06-13",59.00,31.10,0.00,0.00,0.00
"CA001091235","1981-06-14",64.40,35.60,0.00,0.00,0.00
"CA001091235","1981-06-15",61.70,38.30,30.00,0.00,0.00
"CA001091235","1981-06-16",55.40,37.40,30.00,0.00,0.00
"CA001091235","1981-06-17",58.10,35.60,20.00,0.00,0.00
"CA001091235","1981-06-18",51.80,33.80,44.00,0.00,0.00
"CA001091235","1981-06-19",60.80,41.00,50.00,0.00,0.00
"CA001091235","1981-06-20",54.50,39.20,106.00,0.00,0.00
"CA001091235","1981-06-21",54.50,37.40,126.00,0.00,0.00
"CA001091235","1981-06-22",59.00,37.40,38.00,0.00,0.00
"CA001091235","1981-06-23",61.70,41.90,72.00,0.00,0.00
"CA001091235","1981-06-24",65.30,37.40,0.00,0.00,0.00
"CA001091235","1981-06-25",76.10,34.70,0.00,0.00,0.00
"CA001091235","1981-06-26",63.50,36.50,0.00,0.00,0.00
"CA001091235","1981-06-27",62.60,40.10,0.00,0.00,0.00
"CA001091235","1981-06-28",71.60,31.10,0.00,0.00,0.00
"CA001091235","1981-06-29",72.50,50.90,58.00,0.00,0.00
"CA001091235","1981-06-30",59.00,44.60,10.00,0.00,0.00
"CA001091235","1981-07-01",69.80,35.60,0.00,0.00,0.00
"CA001091235","1981-07-02",77.00,41.00,0.00,0.00,0.00
"CA001091235","1981-07-03",78.80,51.80,0.00,0.00,0.00
"CA001091235","1981-07-04",74.30,35.60,0.00,0.00,0.00
"CA001091235","1981-07-05",72.50,41.00,0.00,0.00,0.00
"CA001091235","1981-07-06",59.00,41.90,28.00,0.00,0.00
"CA001091235","1981-07-07",59.00,35.60,0.00,0.00,0.00
"CA001091235","1981-07-08",61.70,41.00,0.00,0.00,0.00
"CA001091235","1981-07-09",64.40,41.90,0.00,0.00,0.00
"CA001091235","1981-07-10",73.40,31.10,0.00,0.00,0.00
"CA001091235","1981-07-11",70.70,35.60,0.00,0.00,0.00
"CA001091235","1981-07-12",77.00,32.90,0.00,0.00,0.00
"CA001091235","1981-07-13",68.90,35.60,0.00,0.00,0.00
"CA001091235","1981-07-14",70.70,42.80,26.00,0.00,0.00
"CA001091235","1981-07-15",72.50,44.60,0.00,0.00,0.00
"CA001091235","1981-07-16",78.80,45.50,0.00,0.00,0.00
"CA001091235","1981-07-17",79.70,42.80,0.00,0.00,0.00
"CA001091235","1981-07-18",79.70,44.60,0.00,0.00,0.00
"CA001091235","1981-07-19",76.10,44.60,78.00,0.00,0.00
"CA001091235","1981-07-20",68.00,48.20,10.00,0.00,0.00
"CA001091235","1981-07-21",71.60,51.80,0.00,0.00,0.00
"CA001091235","1981-07-22",72.50,43.70,10.00,0.00,0.00
"CA001091235","1981-07-23",76.10,42.80,64.00,0.00,0.00
"CA001091235","1981-07-24",74.30,46.40,0.00,0.00,0.00
"CA001091235","1981-07-25",75.20,38.30,0.00,0.00,0.00
"CA001091235","1981-07-26",80.60,50.00,0.00,0.00,0.00
"CA001091235","1981-07-27",80.60,42.80,0.00,0.00,0.00
"CA001091235","1981-07-28",68.00,43.70,46.00,0.00,0.00
"CA001091235","1981-07-29",62.60,51.80,12.00,0.00,0.00
"CA001091235","1981-07-30",71.60,46.40,0.00,0.00,0.00
"CA001091235","1981-07-31",68.00,45.50,0.00,0.00,0.00
"CA001091235","1981-08-01",75.20,41.00,0.00,0.00,0.00
"CA001091235","1981-08-02",77.00,39.20,0.00,0.00,0.00
"CA001091235","1981-08-03",76.10,39.20,14.00,0.00,0.00
"CA001091235","1981-08-04",77.90,42.80,0.00,0.00,0.00
"CA001091235","1981-08-05",80.60,42.80,0.00,0.00,0.00
"CA001091235","1981-08-06",84.20,39.20,0.00,0.00,0.00
"CA001091235","1981-08-07",86.00,42.80,0.00,0.00,0.00
"CA001091235","1981-08-08",90.50,44.60,0.00,0.00,0.00
"CA001091235","1981-08-09",91.40,42.80,0.00,0.00,0.00
"CA001091235","1981-08-10",92.30,44.60,0.00,0.00,0.00
"CA001091235","1981-08-11",92.30,46.40,0.00,0.00,0.00
"CA001091235","1981-08-12",81.50,44.60,0.00,0.00,0.00
"CA001091235","1981-08-13",84.20,37.40,0.00,0.00,0.00
"CA001091235","1981-08-14",87.80,39.20,0.00,0.00,0.00
"CA001091235","1981-08-15",78.80,41.90,0.00,0.00,0.00
"CA001091235","1981-08-16",80.60,38.30,0.00,0.00,0.00
"CA001091235","1981-08-17",85.10,39.20,0.00,0.00,0.00
"CA001091235","1981-08-18",86.00,37.40,0.00,0.00,0.00
"CA001091235","1981-08-19",84.20,42.80,0.00,0.00,0.00
"CA001091235","1981-08-20",78.80,42.80,0.00,0.00,0.00
"CA001091235","1981-08-21",75.20,42.80,0.00,0.00,0.00
"CA001091235","1981-08-22",78.80,48.20,0.00,0.00,0.00
"CA001091235","1981-08-23",85.10,41.00,0.00,0.00,0.00
"CA001091235","1981-08-24",84.20,50.00,0.00,0.00,0.00
"CA001091235","1981-08-25",71.60,50.00,14.00,0.00,0.00
"CA001091235","1981-08-26",65.30,35.60,0.00,0.00,0.00
"CA001091235","1981-08-27",64.40,46.40,0.00,0.00,0.00
"CA001091235","1981-08-28",64.40,30.20,18.00,0.00,0.00
"CA001091235","1981-08-29",51.80,45.50,68.00,0.00,0.00
"CA001091235","1981-08-30",67.10,32.90,0.00,0.00,0.00
"CA001091235","1981-08-31",59.90,32.90,62.00,0.00,0.00
"CA001091235","1981-09-01",57.20,47.30,82.00,0.00,0.00
"CA001091235","1981-09-02",60.80,41.00,0.00,0.00,0.00
"CA001091235","1981-09-03",62.60,41.00,150.00,0.00,0.00
"CA001091235","1981-09-04",59.90,48.20,0.00,0.00,0.00
"CA001091235","1981-09-05",66.20,33.80,0.00,0.00,0.00
"CA001091235","1981-09-06",75.20,46.40,0.00,0.00,0.00
"CA001091235","1981-09-07",83.30,42.80,0.00,0.00,0.00
"CA001091235","1981-09-08",85.10,41.90,0.00,0.00,0.00
"CA001091235","1981-09-09",72.50,41.90,0.00,0.00,0.00
"CA001091235","1981-09-10",71.60,32.00,0.00,0.00,0.00
"CA001091235","1981-09-11",68.00,36.50,0.00,0.00,0.00
"CA001091235","1981-09-12",68.00,32.90,0.00,0.00,0.00
"CA001091235","1981-09-13",65.30,28.40,0.00,0.00,0.00
"CA001091235","1981-09-14",70.70,30.20,0.00,0.00,0.00
"CA001091235","1981-09-15",84.20,35.60,0.00,0.00,0.00
"CA001091235","1981-09-16",86.90,37.40,0.00,0.00,0.00
"CA001091235","1981-09-17",89.60,41.90,0.00,0.00,0.00
"CA001091235","1981-09-18",77.00,54.50,48.00,0.00,0.00
"CA001091235","1981-09-19",58.10,41.90,20.00,0.00,0.00
"CA001091235","1981-09-20",53.60,32.00,0.00,0.00,0.00
"CA001091235","1981-09-21",53.60,37.40,20.00,0.00,0.00
"CA001091235","1981-09-22",52.70,35.60,64.00,0.00,0.00
"CA001091235","1981-09-23",50.00,39.20,60.00,0.00,0.00
"CA001091235","1981-09-24",49.10,30.20,28.00,0.00,0.00
"CA001091235","1981-09-25",50.90,33.80,0.00,0.00,0.00
"CA001091235","1981-09-26",54.50,28.40,0.00,0.00,0.00
"CA001091235","1981-09-27",59.00,41.00,0.00,0.00,0.00
"CA001091235","1981-09-28",56.30,32.00,60.00,0.00,0.00
"CA001091235","1981-09-29",56.30,35.60,60.00,0.00,0.00
"CA001091235","1981-09-30",51.80,36.50,0.00,0.00,0.00
"CA001091235","1981-10-01",53.60,42.80,300.00,0.00,0.00
"CA001091235","1981-10-02",44.60,28.40,40.00,0.00,0.00
"CA001091235","1981-10-03",45.50,29.30,0.00,0.00,0.00
"CA001091235","1981-10-04",47.30,30.20,0.00,0.00,0.00
"CA001091235","1981-10-05",44.60,32.00,24.00,0.00,0.00
"CA001091235","1981-10-06",52.70,39.20,28.00,0.00,0.00
"CA001091235","1981-10-07",55.40,39.20,0.00,0.00,0.00
"CA001091235","1981-10-08",53.60,29.30,170.00,30.00,0.00
"CA001091235","1981-10-09",40.10,33.80,20.00,20.00,30.00
"CA001091235","1981-10-10",41.00,31.10,0.00,0.00,0.00
"CA001091235","1981-10-11",38.30,31.10,0.00,0.00,0.00
"CA001091235","1981-10-12",41.00,20.30,0.00,0.00,0.00
"CA001091235","1981-10-13",55.40,28.40,0.00,0.00,0.00
"CA001091235","1981-10-14",60.80,28.40,0.00,0.00,0.00
"CA001091235","1981-10-15",53.60,27.50,26.00,0.00,0.00
"CA001091235","1981-10-16",54.50,40.10,0.00,0.00,0.00
"CA001091235","1981-10-17",57.20,26.60,0.00,0.00,0.00
"CA001091235","1981-10-18",57.20,26.60,0.00,0.00,0.00
"CA001091235","1981-10-19",45.50,29.30,0.00,0.00,0.00
"CA001091235","1981-10-20",42.80,15.80,0.00,0.00,0.00
"CA001091235","1981-10-21",41.90,14.00,0.00,0.00,0.00
"CA001091235","1981-10-22",50.90,20.30,0.00,0.00,0.00
"CA001091235","1981-10-23",54.50,24.80,22.00,0.00,0.00
"CA001091235","1981-10-24",59.90,39.20,0.00,0.00,0.00
"CA001091235","1981-10-25",47.30,30.20,16.00,0.00,0.00
"CA001091235","1981-10-26",46.40,25.70,26.00,0.00,0.00
"CA001091235","1981-10-27",57.20,36.50,42.00,0.00,0.00
"CA001091235","1981-10-28",45.50,39.20,16.00,0.00,0.00
"CA001091235","1981-10-29",47.30,30.20,0.00,0.00,0.00
"CA001091235","1981-10-30",46.40,23.00,20.00,20.00,0.00
"CA001091235","1981-10-31",46.40,33.80,152.00,0.00,
"CA001091235","1981-11-01",41.00,38.30,66.00,0.00,0.00
"CA001091235","1981-11-02",53.60,30.20,0.00,0.00,0.00
"CA001091235","1981-11-03",56.30,43.70,10.00,0.00,0.00
"CA001091235","1981-11-04",44.60,15.80,0.00,0.00,0.00
"CA001091235","1981-11-05",50.90,25.70,0.00,0.00,0.00